Location: Ferma
(41.9500°N, 44.5167°E)
Time: 19:39:21
(UTC+00:00)

Cosmos 44 - Pass Details

Date: 24 October 2021
Orbit: 579 x 782 km, 65.1° (Epoch: 02 December)

Event Time Altitude Azimuth Distance (km) Brightness Sun altitude
Rises 15:13:11 0° 198° (SSW) 3,242 7.1 -13.0°
Reaches altitude 10° 15:15:38 10° 194° (SSW) 2,326 6.2 -13.4°
Maximum altitude 15:20:52 56° 117° (ESE) 928 3.6 -14.4°
Enters shadow 15:25:36 13° 42° (NE) 2,137 5.4 -15.3°
